Alexandria, Egypt

11:42 AM EET on April 24, 2018 (GMT +0200)
Alexandria

Weather History for HEAX - June, 2013

Change the Weather History Date:

Sunday, June 30, 2013

  Actual Average Record
Temperature  
Mean Temperature 80 °F -  
Max Temperature 86 °F 84 °F 88 °F (2012)
Min Temperature 74 °F 73 °F 66 °F (2011)
Cooling Degree Days 15    
Growing Degree Days 30 (Base 50)    
Moisture  
Dew Point 69 °F    
Average Humidity 71    
Maximum Humidity 83    
Minimum Humidity 52    
Precipitation  
Precipitation 0.00 in 0.00 in - ()
Sea Level Pressure  
Sea Level Pressure 29.86 in    
Wind  
Wind Speed 9 mph ()    
Max Wind Speed 16 mph    
Max Gust Speed -    
Visibility 6.2 miles    
Events      
Averages and records for this station are not official NWS values.
T = Trace of Precipitation, MM = Missing Value Source: Averaged Metar Reports

Daily Weather History Graph

Daily Weather History Graph

Search for Another Location

Airport or City:

Astronomy

Jun. 30, 2013 Rise Set
Actual Time 4:59 AM EET 7:08 PM EET
Civil Twilight 4:31 AM EET 7:36 PM EET
Nautical Twilight 3:57 AM EET 8:10 PM EET
Astronomical Twilight 3:21 AM EET 8:46 PM EET
Moon No Moon Rise 12:20 PM EET (6/30)
Length of Visible Light 15h 04m
Length of Day
14h 08m
Waning Gibbous, 48% of the Moon is Illuminated
Jun 30
Waning Gibbous
Jul 8
New
Jul 16
First Quarter
Jul 22
Full
Jul 29
Last Quarter

Hourly Weather History & Observations

Time (EET) Temp. Heat Index Dew Point Humidity Pressure Visibility Wind Dir Wind Speed Gust Speed Precip Events Conditions
12:00 AM 77.0 °F - 69.8 °F 78% 29.83 in - NW 9.2 mph - N/A   Clear
1:00 AM 75.2 °F - 69.8 °F 83% 29.83 in - WNW 9.2 mph - N/A   Clear
2:00 AM 76 °F - 69 °F 75% 29.83 in 6 mi NW 8.1 mph - -  
2:00 AM 75.2 °F - 69.8 °F 83% 29.83 in - NW 8.1 mph - N/A   Clear
3:00 AM 75.2 °F - 69.8 °F 83% 29.83 in - NW 9.2 mph - N/A   Clear
4:00 AM 75.2 °F - 69.8 °F 83% 29.83 in - NW 8.1 mph - N/A   Clear
5:00 AM 75.2 °F - 69.8 °F 83% 29.83 in - NW 9.2 mph - N/A   Clear
6:00 AM 77.0 °F - 68.0 °F 74% 29.83 in 6.2 mi NW 6.9 mph - N/A   Scattered Clouds
8:00 AM 78 °F - 69 °F 68% 29.85 in 6 mi NW 8.1 mph - -   Partly Cloudy
8:00 AM 78.8 °F - 69.8 °F 74% 29.86 in 6.2 mi NW 8.1 mph - N/A   Scattered Clouds
9:00 AM 80.6 °F 83.9 °F 69.8 °F 70% 29.86 in 6.2 mi NW 9.2 mph - N/A   Scattered Clouds
10:00 AM 82.4 °F 86.3 °F 69.8 °F 66% 29.86 in 6.2 mi NW 9.2 mph - N/A   Scattered Clouds
11:00 AM 82.4 °F 85.4 °F 68.0 °F 62% 29.86 in 6.2 mi NW 12.7 mph - N/A   Scattered Clouds
12:00 PM 84.2 °F 89.6 °F 71.6 °F 66% 29.86 in 6.2 mi NW 11.5 mph - N/A   Scattered Clouds
1:00 PM 84.2 °F 89.6 °F 71.6 °F 66% 29.86 in 6.2 mi NNW 11.5 mph - N/A   Scattered Clouds
2:00 PM 85 °F - 70 °F 52% 29.86 in 6 mi NW 15.0 mph - -   Partly Cloudy
2:00 PM 86.0 °F 90.4 °F 69.8 °F 58% 29.86 in 6.2 mi NW 15.0 mph - N/A   Scattered Clouds
3:00 PM 84.2 °F 88.4 °F 69.8 °F 62% 29.86 in 6.2 mi NNW 16.1 mph - N/A   Scattered Clouds
4:00 PM 82.4 °F 85.4 °F 68.0 °F 62% 29.86 in 6.2 mi NW 15.0 mph - N/A   Scattered Clouds
5:00 PM 80.6 °F 83.9 °F 69.8 °F 70% 29.86 in 6.2 mi NNW 11.5 mph - N/A   Scattered Clouds
6:00 PM 78.8 °F - 68.0 °F 69% 29.86 in 6.2 mi NW 15.0 mph - N/A   Scattered Clouds
7:00 PM 77.0 °F - 68.0 °F 74% 29.89 in 6.2 mi NW 15.0 mph - N/A   Scattered Clouds
8:00 PM 77 °F - 67 °F 65% 29.89 in 6 mi NW 16.1 mph - -   Scattered Clouds
8:00 PM 77.0 °F - 68.0 °F 74% 29.89 in 6.2 mi NW 16.1 mph - N/A   Partly Cloudy
9:00 PM 75.2 °F - 66.2 °F 73% 29.89 in 6.2 mi NNW 9.2 mph - N/A   Partly Cloudy
10:00 PM 75.2 °F - 64.4 °F 69% 29.92 in 6.2 mi NNW 9.2 mph - N/A   Partly Cloudy
11:00 PM 75.2 °F - 64.4 °F 69% 29.89 in 6.2 mi NW 12.7 mph - N/A   Partly Cloudy